Location: Ipswich
(52.0579°N, 1.1528°E)
Time: 21:11:31
(UTC+01:00)

ISS - Pass Details

Date: 13 May 2026
Orbit: 414 x 424 km, 51.6° (Epoch: 15 May)

Event Time Altitude Azimuth Distance (km) Brightness Sun altitude
Rises 00:42:40 0° 281° (W) 2,357 0.2 -19.6°
Reaches altitude 10° 00:44:47 10° 277° (W) 1,493 -0.9 -19.6°
Enters shadow 00:46:22 25° 266° (W) 893 -2.2 -19.6°
